LEMUR-2-VANDENDRIES (52733 NORAD) Tracking and Keplerian Element Data

This shows tracking and keplerian element data for the satellite.

Feedback or suggestion? Click here.




ElementValue
Catalog52733
NameLEMUR-2-VANDENDRIES
Epoch Orbit712
Epoch Day192.87624548
Epoch Year2022
RAAN307.113
Inclination97.5129
Eccentricity0.0009195
Argument of Perigee101.3454
Mean Anonmoly258.881
Mean Motion15.12183368
Decay Rate0.00013098
L11 52733U 22057B 22192.87624548 .00013098 00000+0 76121-3 0 9996
L22 52733 97.5129 307.1130 0009195 101.3454 258.8810 15.12183368 7122

Live tracking and technical data element details for LEMUR-2-VANDENDRIES (NORAD 52733). LEMUR-2-VANDENDRIES can be tracked NOW for your location showing map with azimuth and elevation plus other details from your city location.

Track the satellite on the map from your city or location and see movement details for azimuth, elevation, latitude, longitude, range, height, and movement on the map or in text.







IsCatalogInMostPopularTable: catalog: 52733, numindb: 3
Update: records affected: 1



GetName: 52733 LEMUR-2-VANDENDRIES

Hit Count: updated at: Sun, 14 Aug 2022 01:00:28 GMT